This is the latest recevied weather packets stored in our database for station/object JH0KSP-13. If no packets are shown the sender has not sent any weather packets the latest 10 day(s).
| Time | Temp. | Humidity | Pressure | Rain* | Wind** | Luminosity | Snow |
|---|---|---|---|---|---|---|---|
| 1777755608 | 11.11° C | 98% | 1013.9 hPa | 0 mm | - | - | - |
| 1777755008 | 11.11° C | 98% | 1013.9 hPa | 0 mm | - | - | - |
| 1777753809 | 11.11° C | 97% | 1013.9 hPa | 0 mm | - | - | - |
| 1777753208 | 11.11° C | 97% | 1013.8 hPa | 0 mm | - | - | - |
| 1777752609 | 11.11° C | 97% | 1013.7 hPa | 0 mm | - | - | - |
| 1777752416 | 11.11° C | 97% | 1013.7 hPa | 0 mm | - | - | - |
| 1777751217 | 11.11° C | 96% | 1013.4 hPa | 0 mm | - | - | - |
| 1777749608 | 11.11° C | 96% | 1013.3 hPa | 0 mm | - | - | - |
| 1777748817 | 11.11° C | 96% | 1013.5 hPa | 0 mm | - | - | - |
| 1777746416 | 11.11° C | 95% | 1013.4 hPa | 0 mm | - | - | - |
| 1777746009 | 11.11° C | 95% | 1013.4 hPa | 0 mm | - | - | - |
| 1777745408 | 12.22° C | 95% | 1013.4 hPa | 0 mm | - | - | - |
| 1777744809 | 12.22° C | 93% | 1013.3 hPa | 0 mm | - | - | - |
| 1777744209 | 12.22° C | 92% | 1013.4 hPa | 0 mm | - | - | - |
| 1777742817 | 12.22° C | 88% | 1013.4 hPa | 0 mm | - | - | - |
| 1777741616 | 12.22° C | 88% | 1013.4 hPa | 0 mm | - | - | - |
| 1777740608 | 12.22° C | 89% | 1013.5 hPa | 0 mm | - | - | - |
| 1777740416 | 12.22° C | 89% | 1013.5 hPa | 0 mm | - | - | - |
| 1777739408 | 12.22° C | 86% | 1013.6 hPa | 0 mm | - | - | - |
| 1777738808 | 12.22° C | 84% | 1013.5 hPa | 0 mm | - | - | - |
| 1777738208 | 12.22° C | 81% | 1013.9 hPa | 0 mm | - | - | - |
| 1777738017 | 12.22° C | 80% | 1013.8 hPa | 0 mm | - | - | - |
| 1777737609 | 12.22° C | 80% | 1013.9 hPa | 0 mm | - | - | - |
| 1777737009 | 12.22° C | 80% | 1014 hPa | 0 mm | - | - | - |
| 1777736817 | 12.22° C | 81% | 1014 hPa | 0 mm | - | - | - |
* Rain latest hour (hover to see other rain measurements)
** Current wind speed in m/s (hover to see current wind gust speed)